Location: Knobs
(40.8333°S, 175.2333°E)
Time: 02:57:19
(UTC+00:00)

Cosmos 2056 Rocket - Pass Details

Date: 12 June 2024
Orbit: 741 x 797 km, 74.0° (Epoch: 22 July)

Event Time Altitude Azimuth Distance (km) Brightness Sun altitude
Exits shadow 17:41:48 47° 278° (W) 1,035 3.7 -21.7°
Maximum altitude 17:41:57 47° 283° (WNW) 1,033 3.7 -21.7°
Drops below altitude 10° 17:47:02 10° 356° (N) 2,343 6.1 -20.8°
Sets 17:49:30 0° 1° (N) 3,271 7.0 -20.3°
